Lapse_Rate
5.1 5.3 5.2 5.2 5.3 5.4 5.5 5.5 5.6 5.8 5.9 5.9 5.9 5.9 5.7 6.0 5.7 5.5 5.5 5.6 5.6 5.8 6.1 6.3 6.5 6.7 6.4 6.6 7.1 6.0 6.7 7.0 6.7 6.5 6.8 6.7 6.7 6.7 6.7 6.8 7.1 6.7 6.8 6.7 6.9 7.2 7.4
4.9 5.3 5.1 5.2 5.2 5.2 5.2 5.6 5.6 5.6 5.7 5.9 6.2 6.1 6.1 6.0 5.8 5.5 5.5 5.3 5.4 5.6 5.7 5.9 6.0 6.3 6.6 6.8 6.8 6.4 6.5 6.8 6.7 6.5 6.7 6.5 6.5 6.4 6.4 6.6 6.4 6.7 6.6 6.9 7.1 7.1 7.1
4.8 5.0 4.9 5.1 5.1 5.5 5.5 5.5 5.6 5.5 5.3 5.6 5.9 5.9 5.9 5.9 6.0 5.9 5.9 5.7 5.7 5.7 5.7 5.6 5.8 6.0 6.2 6.9 6.4 6.6 6.5 6.5 6.5 6.3 6.5 6.3 6.3 6.3 6.0 6.4 6.3 6.5 6.5 6.7 6.8 7.0 6.7
4.8 4.9 4.4 4.5 4.9 5.3 5.5 5.6 5.5 5.8 5.5 5.4 5.6 5.7 5.7 5.8 5.9 6.0 5.9 5.9 5.9 5.6 5.7 5.5 5.7 5.9 6.1 6.6 6.6 6.6 6.1 6.5 6.6 6.3 6.2 6.3 6.0 6.0 6.1 5.8 6.0 5.9 6.1 6.3 6.3 6.6 6.8
4.8 4.7 4.7 4.2 4.3 5.0 5.4 5.3 5.5 5.6 5.2 5.1 5.4 5.6 5.7 5.7 5.8 6.0 5.7 6.1 5.9 5.7 5.6 5.6 5.4 5.6 5.9 6.2 6.4 6.6 6.2 6.0 6.2 6.4 6.2 5.7 5.8 5.8 5.6 5.5 5.7 5.8 5.9 5.8 5.7 6.7 6.4
4.5 4.9 4.9 4.6 4.2 4.6 4.8 5.1 5.6 5.5 5.2 5.5 5.5 5.4 5.3 5.4 5.6 5.5 5.3 5.6 5.7 5.6 5.4 5.3 5.7 5.9 5.8 5.7 5.9 6.1 6.1 6.0 5.8 5.8 5.8 5.7 5.3 5.1 5.4 5.9 5.3 5.8 5.5 5.2 5.4 6.4 6.5
3.2 4.1 5.1 4.9 4.7 4.3 4.5 4.7 5.2 5.7 5.7 5.6 5.6 5.6 5.4 5.4 5.3 5.3 5.6 5.6 5.0 5.0 5.6 6.4 6.1 6.3 5.7 5.4 5.7 6.1 6.2 5.8 5.7 5.8 6.0 5.6 5.1 5.7 6.5 5.7 5.7 5.6 5.5 5.4 5.8 6.1 5.8
3.6 3.7 3.8 5.1 4.9 4.6 4.5 4.5 5.0 5.6 5.8 5.9 5.7 5.7 5.5 5.6 5.5 5.4 5.2 5.3 5.3 5.2 5.6 5.9 6.0 5.7 5.8 5.2 5.4 5.6 5.8 5.8 5.7 5.9 5.5 5.1 5.5 6.5 5.6 5.6 5.6 5.5 5.6 5.7 5.8 6.1 6.1
3.3 3.8 3.9 3.9 5.1 4.9 4.6 4.7 5.0 5.5 5.8 5.9 6.0 5.5 6.0 5.8 5.8 5.4 5.3 5.3 5.3 5.5 5.2 5.6 5.8 5.6 6.0 5.8 5.1 5.3 5.0 5.9 5.5 5.3 5.4 5.4 6.0 5.8 5.6 5.6 5.6 5.7 5.7 5.9 5.9 6.0 6.4
3.5 3.7 4.1 3.8 4.0 4.9 5.1 4.6 4.8 5.5 5.8 5.8 6.2 5.9 5.8 5.9 5.8 5.4 5.6 5.6 5.7 5.3 5.1 4.6 5.7 6.0 6.0 6.1 5.3 5.3 5.0 5.8 5.3 5.1 5.4 5.0 5.5 5.9 5.5 5.5 5.7 5.8 6.2 6.3 6.5 6.5 6.1
3.4 3.7 3.9 4.0 4.1 4.2 4.8 4.8 4.4 4.8 5.7 5.8 6.0 5.9 5.6 5.9 5.5 5.9 5.9 5.5 5.9 5.4 5.8 5.6 5.2 5.2 5.5 5.7 5.5 5.7 5.9 5.5 5.8 5.4 5.4 5.2 5.6 6.4 5.8 6.0 6.2 6.0 6.5 6.9 6.7 6.5 6.1
3.3 3.7 4.1 4.3 4.0 4.0 4.4 4.9 4.8 4.7 5.5 5.9 5.8 5.8 6.0 6.0 5.7 5.3 5.6 6.2 5.7 5.8 4.8 5.6 4.9 5.6 5.2 5.8 5.2 5.3 5.8 5.0 5.5 5.5 5.3 5.4 6.0 5.8 6.1 6.3 6.4 6.6 6.7 6.9 7.1 6.9 5.6
3.1 3.3 4.0 4.0 4.4 4.7 4.2 4.1 4.7 4.9 5.1 5.4 5.4 5.6 5.9 5.7 5.2 5.7 5.8 5.5 5.8 5.5 5.3 5.8 5.3 5.5 5.7 5.9 5.1 5.0 5.9 5.3 5.1 5.1 5.1 5.8 5.9 6.2 6.1 6.1 6.4 6.8 7.0 7.0 6.7 6.5 5.4
3.3 3.2 3.7 4.0 4.4 4.5 4.4 4.5 4.4 4.8 5.1 5.3 5.6 5.8 6.0 6.4 5.6 6.0 5.9 5.8 5.8 5.7 5.6 6.3 6.4 6.2 5.6 5.5 5.5 5.2 5.5 5.5 5.3 5.7 5.9 5.5 5.9 6.7 6.7 6.4 7.0 6.7 7.0 6.9 6.1 5.4 5.8
3.7 3.5 3.6 4.1 4.2 4.2 4.4 4.6 4.7 5.2 5.4 5.3 5.6 5.8 6.3 6.6 5.9 5.7 5.7 5.5 5.6 5.9 5.6 6.1 6.0 6.2 5.8 5.9 6.0 5.4 5.7 5.9 6.1 6.0 6.0 6.2 6.0 7.1 7.2 7.4 7.2 6.8 6.7 7.3 7.2 6.1 5.5
4.6 4.0 3.6 4.1 4.0 4.5 4.7 4.8 4.9 5.1 5.5 5.4 5.6 6.0 6.2 6.1 6.2 5.9 6.5 6.0 6.1 6.1 6.2 6.4 6.5 6.5 6.3 6.1 6.0 6.1 5.8 6.3 6.4 6.3 6.3 6.5 6.3 6.9 7.2 7.6 7.2 6.9 7.2 7.0 6.7 5.3 5.5
6.0 4.7 4.2 4.3 4.3 4.5 4.6 4.8 4.8 5.1 5.4 5.8 6.7 6.4 5.9 5.8 6.0 6.5 6.4 5.4 5.2 6.1 6.5 6.1 5.8 6.4 6.4 6.8 6.8 6.5 6.5 6.6 7.3 7.2 6.6 6.5 6.5 6.8 7.2 6.9 7.2 6.9 7.0 7.3 7.0 6.6 5.8
7.2 5.5 4.9 5.0 5.5 5.1 5.0 4.8 4.6 5.1 5.4 5.9 6.3 6.3 6.0 6.1 6.1 6.3 5.8 5.6 5.8 6.1 6.3 5.9 6.1 6.3 6.6 7.2 7.2 7.3 6.9 7.0 7.2 7.3 6.9 6.8 7.0 7.0 7.1 7.0 7.3 7.4 7.1 7.3 7.1 6.2 6.4
6.9 6.2 5.4 6.1 6.2 6.7 5.5 5.0 4.9 5.3 5.8 6.0 6.4 6.0 6.3 6.0 6.0 6.0 5.6 5.7 5.7 5.7 6.6 5.8 6.2 6.3 6.5 7.0 7.6 7.7 7.1 7.4 7.5 7.3 7.0 6.9 7.0 7.0 7.0 6.9 6.7 7.1 7.2 7.2 7.1 6.8 7.1
6.9 6.7 6.6 6.7 6.8 6.9 6.5 6.1 5.3 5.7 6.1 6.5 6.7 6.5 6.0 5.9 6.1 6.2 5.8 5.6 6.0 5.7 5.8 5.4 6.0 6.3 6.5 7.2 7.3 7.3 7.6 7.0 7.3 7.4 7.1 7.0 6.9 7.0 6.9 7.2 6.9 7.0 7.2 6.9 6.8 6.6 6.3
6.5 6.6 6.6 6.8 6.7 6.6 6.7 6.6 6.0 5.8 5.8 6.6 6.5 6.4 6.0 5.7 5.8 5.9 6.1 6.0 6.1 5.8 6.0 5.9 5.4 5.8 6.1 6.2 6.8 7.1 7.4 7.1 7.1 7.2 7.2 6.9 6.8 6.8 7.0 7.4 7.5 7.3 7.4 7.2 7.0 6.7 6.4
6.5 6.7 6.7 6.6 6.6 6.9 6.5 7.0 6.6 6.2 6.4 6.3 6.2 6.0 5.8 5.9 5.8 6.1 6.3 5.9 5.8 5.7 5.9 5.6 5.3 5.2 5.9 5.5 5.7 5.8 6.5 6.9 6.9 7.0 7.2 6.8 7.0 7.0 6.8 7.0 7.3 7.4 7.1 7.0 7.6 7.9 7.8
6.3 6.3 6.2 6.3 6.4 6.5 6.5 6.5 6.5 6.5 6.2 6.0 5.8 6.0 5.9 5.5 5.5 5.8 5.7 5.6 5.7 5.5 5.8 5.6 5.5 5.3 5.3 5.4 5.7 6.0 6.7 7.2 7.5 7.6 7.4 7.3 7.0 6.5 6.6 6.7 7.3 7.2 7.2 7.8 8.0 7.8 7.9
6.3 6.2 6.1 6.0 6.0 5.8 5.5 5.5 5.6 5.8 5.7 5.4 5.3 5.4 5.4 5.3 5.7 5.7 5.6 5.7 5.4 5.4 5.3 5.2 5.5 5.5 5.6 5.8 6.1 6.6 7.0 7.0 7.3 7.4 7.3 7.3 7.4 7.2 6.2 6.1 5.1 7.0 7.1 7.1 8.0 8.2 8.0
6.4 6.4 6.4 6.1 6.3 6.3 5.8 5.9 5.8 5.5 6.0 5.4 6.2 5.6 5.4 5.6 5.5 5.6 5.4 5.6 5.6 5.5 5.5 5.7 5.7 5.9 6.2 6.2 6.1 6.1 6.4 6.7 6.8 6.9 7.0 7.2 7.3 6.6 6.5 6.5 6.9 7.0 6.7 7.4 7.6 7.5 7.6
6.8 6.5 6.3 6.2 5.9 5.9 5.2 5.3 5.3 5.9 6.1 5.8 5.7 5.6 5.6 5.7 5.3 5.7 6.0 5.9 5.9 6.2 6.1 5.9 5.7 6.3 6.4 6.5 6.4 6.6 6.4 6.4 6.5 6.4 6.7 6.7 6.8 6.9 6.6 6.7 5.8 7.0 6.7 7.0 7.4 7.1 7.0
6.7 6.7 6.7 6.8 6.8 6.9 6.9 6.4 5.9 5.4 5.4 5.3 5.5 5.9 6.2 6.1 5.7 5.9 6.3 6.8 6.4 6.6 7.2 7.1 6.7 6.3 6.2 6.5 6.6 6.6 6.4 6.4 6.7 6.7 6.7 6.6 6.9 7.0 7.0 7.1 6.8 6.7 6.8 7.5 7.5 7.1 7.4
7.0 6.9 6.8 6.8 6.8 6.7 6.7 6.5 6.4 6.3 6.2 6.0 6.0 6.0 6.0 6.4 6.4 6.4 6.8 6.9 6.7 6.6 6.8 6.4 6.1 6.0 6.0 6.1 6.1 6.0 5.9 5.7 6.3 6.7 7.1 7.5 7.4 7.1 7.3 7.1 6.3 6.7 7.4 7.0 7.5 7.3 7.3
6.9 7.0 7.0 7.0 6.9 6.7 6.5 6.5 6.7 6.5 6.1 5.7 5.6 5.8 6.0 6.1 5.9 6.1 6.2 6.5 6.9 6.8 6.5 6.4 6.2 6.2 6.1 6.1 6.2 6.2 6.6 6.7 6.7 7.0 7.3 7.2 7.3 7.6 7.5 7.4 7.7 7.3 7.0 7.0 7.0 7.1 7.2
Wind_Speed
25 28 29 28 28 29 30 29 27 27 26 24 23 22 21 20 18 16 13 10 8 6 5 8 11 17 6 4 8 6 5 6 8 4 4 3 4 4 3 5 7 4 5 10 9 9 9
21 23 28 29 29 31 31 30 29 28 27 26 25 24 22 20 19 16 13 10 8 7 4 4 8 10 3 3 3 8 7 7 4 3 4 4 3 4 3 4 2 6 9 10 6 10 7
24 22 22 27 28 29 31 29 29 29 28 28 27 26 25 23 20 17 14 11 9 6 5 3 5 3 3 14 4 14 12 3 3 4 3 2 1 5 5 6 3 6 8 8 6 7 6
25 25 23 22 28 28 29 30 29 29 28 27 26 25 26 25 22 19 15 11 8 7 5 3 2 1 6 7 15 10 5 9 5 8 6 8 4 2 3 4 8 6 3 4 2 5 7
27 25 25 24 20 27 26 27 30 30 29 28 27 25 26 26 24 19 14 10 7 5 3 3 1 1 9 9 3 8 9 8 2 4 3 7 2 5 2 2 4 3 5 4 6 2 5
21 27 24 24 23 22 24 26 27 30 29 28 28 28 27 26 24 18 13 12 10 7 2 3 3 3 4 6 4 4 6 6 4 2 1 3 3 4 1 4 5 5 4 4 5 8 11
24 22 26 25 25 25 22 25 27 27 28 28 28 28 27 26 23 27 18 6 3 2 5 9 8 4 5 3 5 2 5 5 3 3 6 4 5 8 14 10 5 3 5 8 8 13 5
27 23 20 25 25 26 25 25 25 27 28 29 28 27 26 25 29 31 10 5 5 3 4 17 21 17 18 7 7 14 2 5 5 6 4 1 10 14 11 10 11 11 11 12 9 7 2
27 27 24 24 27 26 28 27 25 26 27 27 27 27 25 29 29 16 13 13 3 2 3 7 12 11 14 11 10 16 6 9 5 6 6 7 8 14 9 11 11 13 12 6 6 4 2
27 26 24 25 25 27 26 28 27 26 27 28 28 28 30 31 14 7 7 7 8 4 4 6 8 8 13 9 8 20 9 7 6 9 7 8 16 15 11 10 10 11 7 6 3 5 3
27 26 26 23 23 26 26 25 25 26 28 30 30 30 36 35 10 11 9 13 11 1 3 3 6 5 9 15 6 10 14 5 10 6 6 7 3 8 9 9 6 4 2 1 1 2 2
26 26 28 28 24 25 26 25 26 28 27 29 30 33 39 15 5 7 23 16 4 3 8 6 6 5 8 15 3 2 13 4 6 6 11 8 6 2 5 1 3 4 4 6 5 2 4
26 25 27 24 23 27 27 26 25 27 28 28 30 34 28 10 10 25 19 6 3 6 7 7 6 7 14 12 12 4 10 10 9 9 16 7 18 11 2 5 3 4 6 2 3 1 6
27 26 26 26 24 23 23 25 26 27 27 28 28 31 24 7 27 28 8 3 7 10 13 5 9 9 10 11 16 5 7 8 5 3 3 9 6 13 8 17 6 6 7 5 6 4 3
27 26 26 27 25 24 26 25 26 28 27 28 26 11 8 7 34 14 11 9 9 7 11 5 13 7 6 5 9 10 8 7 10 8 7 7 6 1 1 7 14 4 4 8 4 3 3
27 27 25 26 26 26 25 25 26 27 28 29 10 8 7 8 28 15 14 22 15 10 7 10 13 10 14 17 8 17 13 9 7 15 8 3 0 2 1 4 2 10 7 4 3 3 5
26 26 27 26 27 28 26 25 25 27 27 34 6 6 2 3 12 11 12 6 3 10 8 6 13 8 8 11 16 14 11 2 19 9 16 5 5 4 2 3 7 2 5 3 6 5 4
24 24 25 22 21 24 23 24 25 25 30 26 5 8 2 2 12 2 11 11 8 15 3 5 2 14 6 12 17 14 12 10 7 10 11 5 5 5 4 2 3 2 4 6 4 5 4
22 23 22 20 23 22 23 27 25 27 36 8 7 3 0 4 14 4 4 6 6 11 12 11 10 2 13 7 6 13 6 3 4 5 9 6 2 2 3 3 4 4 3 4 5 3 4
14 22 16 19 20 20 22 23 27 32 29 6 4 5 2 1 1 10 8 9 6 5 5 2 6 5 4 3 1 7 4 2 2 4 8 6 3 4 9 4 3 4 1 3 4 3 2
26 27 25 27 21 26 25 27 25 20 15 4 1 4 3 6 3 8 8 7 10 5 4 3 3 4 3 5 2 4 4 5 5 5 4 5 4 3 4 4 3 1 3 5 2 3 5
27 28 25 25 27 24 24 22 20 19 14 3 4 3 2 5 9 14 5 4 6 8 7 6 1 7 11 4 3 5 7 3 4 2 3 2 3 3 2 3 3 4 5 4 7 7 7
28 28 27 25 24 22 20 23 17 12 6 3 1 1 3 4 6 5 5 6 9 10 2 9 6 12 13 4 3 3 5 5 6 6 3 5 5 3 2 1 4 6 5 8 4 4 5
26 25 24 22 22 22 19 14 11 11 9 4 3 2 3 4 5 4 12 11 14 8 5 3 6 7 5 2 3 8 11 10 9 5 5 7 6 3 3 3 2 5 0 3 4 7 2
23 23 23 23 20 19 17 15 14 17 16 4 1 3 3 4 7 12 14 10 13 11 4 6 6 4 6 5 4 4 4 5 4 0 3 4 5 3 5 4 4 8 6 5 3 4 2
21 21 21 21 19 19 18 19 17 14 13 4 3 1 4 7 0 10 10 14 7 5 3 1 5 5 5 3 3 4 5 5 5 3 5 4 4 4 3 4 8 4 3 6 4 8 3
20 21 20 20 19 20 20 21 21 18 14 5 3 5 4 4 4 4 4 6 6 4 3 3 5 4 5 3 2 2 3 4 6 7 5 4 1 6 3 4 6 7 4 4 4 7 5
17 17 19 19 20 19 20 21 20 17 14 5 1 4 4 4 5 6 4 4 4 4 4 6 4 4 3 3 3 4 3 4 3 4 6 7 7 4 3 3 9 6 3 9 7 4 6
15 15 15 17 18 18 19 21 21 18 14 7 4 4 3 5 3 2 6 2 4 4 7 3 4 4 4 3 1 2 1 2 5 3 2 3 6 5 8 7 5 4 5 1 5 6 4
Wind_Direction
241 226 220 217 212 209 209 208 208 203 204 206 212 215 214 215 216 221 222 233 250 266 301 333 344 343 350 10 249 289 227 295 300 355 327 329 356 358 334 300 322 203 321 326 316 313 308
247 241 225 217 215 209 212 208 205 204 202 203 208 211 214 216 218 219 220 222 230 256 285 326 338 347 7 268 266 282 19 349 312 360 338 28 32 296 257 308 334 316 323 304 305 308 286
237 242 239 222 214 214 209 208 206 203 203 203 203 205 209 211 214 216 214 216 217 225 250 269 332 332 237 248 275 310 318 287 302 296 283 277 74 40 337 316 332 305 310 304 288 258 262
239 230 233 240 218 215 213 204 207 205 202 201 202 202 204 208 209 209 208 204 207 214 218 226 350 67 254 259 270 276 233 279 233 250 247 260 291 267 197 294 338 333 308 338 284 320 273
248 235 228 228 240 213 214 213 207 206 202 198 196 197 201 204 207 204 203 192 194 176 157 182 189 136 266 297 245 257 198 229 211 240 241 244 160 199 196 107 351 284 256 253 297 241 277
264 241 232 223 217 234 214 212 208 202 201 200 194 193 195 198 197 192 171 132 124 117 194 209 259 352 251 249 208 209 167 175 208 216 262 222 192 186 72 141 215 212 233 230 278 296 317
248 251 237 230 215 213 221 212 207 205 200 197 197 192 187 188 170 142 120 114 138 223 218 202 184 236 281 271 331 189 164 145 206 139 182 181 181 211 215 211 215 254 269 269 273 276 275
232 241 248 243 227 213 217 219 209 201 199 199 196 188 182 167 155 156 154 195 178 165 248 228 243 233 269 286 300 299 201 169 162 198 153 28 235 227 227 231 234 244 253 266 273 248 348
228 231 231 241 237 221 211 219 210 202 199 197 191 182 172 158 155 157 193 200 140 101 297 223 211 225 228 232 233 238 193 191 189 196 198 195 236 220 219 244 239 244 240 248 248 276 3
233 220 225 233 232 231 218 212 212 205 201 193 188 176 166 145 152 165 195 150 117 71 252 261 210 248 190 203 253 211 188 163 201 193 218 243 243 249 229 236 226 243 231 239 342 11 267
234 227 221 226 235 228 226 217 209 204 197 191 184 174 156 163 139 188 155 138 101 79 261 195 196 187 174 176 140 210 190 169 205 207 158 232 240 221 235 229 222 235 152 116 33 318 323
232 229 224 221 222 225 218 217 208 204 195 189 184 173 164 177 133 140 139 125 106 120 231 272 178 204 144 196 209 89 178 136 172 218 257 245 288 216 221 294 144 163 82 38 33 43 291
228 228 227 218 220 225 212 209 206 198 190 189 182 173 171 160 186 144 141 138 118 191 190 219 178 183 175 176 215 141 158 171 181 188 229 255 258 260 252 281 202 111 82 359 342 295 231
226 225 225 221 217 212 211 208 203 196 188 186 180 177 188 179 143 148 164 148 184 185 206 203 149 168 208 150 197 147 147 180 225 142 146 199 288 221 206 207 184 175 153 157 211 217 281
223 223 223 221 215 216 209 207 201 193 180 180 170 188 192 184 155 164 177 207 196 192 189 193 148 160 209 196 168 176 185 186 200 171 175 173 240 42 90 183 175 187 180 176 114 16 41
219 221 222 223 217 219 207 205 203 195 179 169 187 191 199 154 168 175 203 216 185 208 167 223 180 187 183 189 185 194 171 197 195 197 201 229 3 280 183 73 55 194 164 116 27 187 239
220 216 218 221 219 215 203 204 200 189 175 172 178 172 168 324 163 195 205 218 197 218 216 251 203 211 202 179 194 192 192 154 188 180 189 174 132 282 100 186 181 155 150 108 136 168 191
213 215 214 208 219 204 199 190 190 180 168 169 177 178 164 247 181 145 209 155 220 205 216 170 212 255 222 185 196 193 194 171 175 153 159 175 142 194 196 354 141 121 157 145 153 210 193
215 207 214 206 204 192 190 189 180 171 169 149 149 117 341 243 202 169 146 177 214 170 165 173 193 177 244 222 196 203 129 13 97 115 152 172 181 104 10 340 358 95 67 103 109 85 188
157 126 142 180 164 188 189 179 176 172 172 112 145 132 317 83 163 153 159 162 148 18 144 310 180 124 283 224 312 139 120 119 73 96 89 89 95 189 215 158 140 158 168 87 117 107 187
100 96 91 82 95 106 111 117 115 114 136 93 163 151 216 169 156 154 129 145 150 145 59 338 318 119 136 193 65 88 89 121 39 108 73 97 126 86 82 101 85 141 253 99 100 157 176
84 82 80 81 80 74 97 95 95 96 94 83 119 127 98 91 128 120 119 147 140 124 150 158 82 88 79 76 258 173 131 138 157 117 99 68 112 107 111 177 158 262 240 166 213 245 250
80 81 82 85 85 85 82 79 79 96 75 78 21 136 138 128 136 116 140 140 161 140 47 177 129 101 90 104 88 14 63 93 130 131 119 118 130 105 273 208 55 311 266 207 170 209 199
77 80 84 85 91 89 83 82 90 126 150 126 192 128 113 108 98 108 118 112 124 114 128 64 80 104 177 254 25 39 42 43 78 78 119 136 121 100 130 101 226 234 61 229 214 260 323
80 80 79 77 74 77 72 56 62 71 77 84 48 100 95 88 115 120 139 125 103 92 87 110 33 107 130 80 70 68 6 30 342 152 130 121 120 127 156 198 312 278 189 200 132 285 215
79 78 78 77 71 70 67 62 59 56 56 78 45 144 97 121 159 152 142 147 132 134 108 71 73 66 76 84 69 141 173 150 182 201 197 125 61 114 160 167 204 242 127 99 102 272 143
83 84 79 73 69 67 64 59 58 57 60 86 34 18 77 101 16 115 111 154 120 105 110 128 144 90 72 96 108 123 214 179 164 173 163 130 106 178 147 206 275 225 187 63 169 244 188
72 73 78 75 70 62 61 57 54 48 44 60 9 5 100 81 13 39 100 116 117 117 134 177 77 12 64 114 156 186 184 216 166 210 173 166 168 191 98 169 261 192 212 170 203 202 183
81 77 74 73 73 67 58 55 47 43 54 62 39 359 49 76 123 19 94 48 89 149 126 32 131 139 164 107 140 108 179 151 169 212 173 198 181 182 183 209 212 207 180 165 176 200 194